Location: Newark
(46.7000°N, 60.6000°W)
Time: 11:59:28
(UTC+00:00)

A-11 Canister half - Pass Details

Date: 09 November 2020
Orbit: 1516 x 1684 km, 47.2° (Epoch: 04 December)

Event Time Altitude Azimuth Distance (km) Brightness Sun altitude
Rises 21:58:55 0° 246° (WSW) 4,920 13.3 -14.5°
Reaches altitude 10° 22:02:03 10° 245° (WSW) 3,940 12.4 -15.1°
Maximum altitude 22:12:13 80° 161° (SSE) 1,706 9.2 -16.8°
Enters shadow 22:19:08 24° 78° (ENE) 2,960 9.9 -18.0°
